Location: Amsterdam
(30.7274°N, 84.4357°W)
Time: 21:53:38
(UTC+00:00)

Tiros 1 despin weight - Pass Details

Date: 22 February 2026
Orbit: 556 x 593 km, 48.2° (Epoch: 7 March)

Event Time Altitude Azimuth Distance (km) Brightness Sun altitude
Rises 01:23:07 0° 314° (NW) 2,731 ? -24.9°
Reaches altitude 10° 01:25:23 10° 318° (NW) 1,835 ? -25.4°
Enters shadow 01:28:03 36° 335° (NNW) 890 ? -25.9°
Maximum altitude 01:29:32 59° 38° (NE) 642 - -26.3°
Drops below altitude 10° 01:33:41 10° 119° (ESE) 1,841 - -27.2°
Sets 01:35:58 0° 123° (ESE) 2,740 - -27.6°
